User: anonymous   Login
Location: Tamazert
(32.6352°N, 5.2072°W)
Time: 01:42:15
(UTC+00:00)
Language:

Cosmos 1066 - Orbit

View from above orbital plane
View from above orbital plane
View from above satellite
View from above satellite

Ground track
Ground track

The orbit data is extracted from the following two-line orbital elements,

1 11165U 78121A   22225.38726896 -.00000031  00000-0 -24301-4 0  9995
2 11165  81.2381 187.4105 0050300 119.7460 240.8730 14.11680517763230
Epoch (UTC): 13 August 2022 09:17:40
Eccentricity: 0.0050300
inclination: 81.2381°
perigee height: 817 km
apogee height: 890 km
right ascension of ascending node: 187.4105°
argument of perigee: 119.7460°
revolutions per day: 14.11680517
mean anomaly at epoch: 240.8730°
orbit number at epoch: 76323

The dashed part of the orbit path shows where the satellite is in the earth's shadow,  

DLR